Location: Augirein
(42.9320°N, 0.9181°E)
Time: 19:12:45
(UTC+00:00)

Helios 1A - Pass Details

Date: 20 June 2021
Orbit: 584 x 601 km, 98.2° (Epoch: 23 July)

Event Time Altitude Azimuth Distance (km) Brightness Sun altitude
Exits shadow 00:59:49 59° 136° (SE) 690 3.0 -22.1°
Maximum altitude 01:00:30 74° 75° (ENE) 623 3.0 -22.1°
Drops below altitude 10° 01:04:43 10° 350° (N) 1,943 6.5 -21.9°
Sets 01:06:54 0° 349° (N) 2,853 7.5 -21.8°
